METEOR 2-1 DEB, 57492

Orbit data source: Space-Track

METEOR 2-1 DEB, 57492 is space debris in LEO originally from a launch on Fri, 11 Jul 1975 UTC launched from the Plesetsk Missile And Space Complex (PKMTR). Debris objects in space refer to the collection of defunct objects orbiting the Earth. Examples of debris include non-operational satellites, rocket bodies, and fragments generated from explosions, collisions, or faulty payload assembly.

Loading next visibility...
Identifier
57492, 1975-064F
Orbit
LEO
Country
Flag of CISCIS
Related business
Manufacturer
Unknown
Mission
Spacecraft
Bus & Motor
Unknown
Mass
Unknown
Launch date (UTC)
1975-07-11 (51 years ago)
Launch vehicle
Unknown
Launch site
Plesetsk Missile And Space Complex (PKMTR)
Object type
Payload
Rocket body
Debris
Shape & HBR
Unknown shape, 0.1 m
Radar Cross Section
Medium (>0.1 m² and <1 m²)

Expand to show TLE details & history
Last TLE update: 1 week ago

TLE from 1 week ago
0 METEOR 2-1 DEB
1 57492U 75064F   26165.77584289  .00003588  00000-0  14005-2 0  9995
2 57492  81.2788   1.6625 0009643  76.6019 283.6236 14.29459636402649
Epoch: 2026-06-14T18:37Z
TLE epoch observation values (Epoch: 2026-06-14T18:37:12.825Z)
Latitude
-0.00014°
Longitude
179.28731°
Altitude
794.842 km
Speed
7.457 km/s
True Right ascension
00h 06m 38s
True Declination
0° 00' 00"
Sunlit
Object was in daylight at epoch
Visualization orbit readout
Latitude
Unknown
Longitude
Unknown
Altitude
Unknown
Speed
Unknown
Apparent Right ascension
Unknown
Apparent Declination
Unknown
Sunlit
N/A
Visualization observer readout
Local Sidereal Time
21:32:48
Azimuth
Unknown
Elevation
Unknown
Doppler factor
Unknown
Orbital elements
Apogee altitude
797.597 km
Perigee altitude
783.771 km
Semi-major axis
7,168.821 km
Eccentricity
0.00096
Inclination
81.2788°
RAAN
1.6625°
Arg. of periapsis
76.6019°
True anomaly
283.51618°
Mean anomaly
283.6236°
Eccentric anomaly
283.56989°
Mean motion
3.57579 °/min
Orbital period
100.68 mins
BSTAR
0.0014005
Loading maneuver chart data...
Computing Atmospheric mass density...
Loading historical data...
Loading historical data...
Loading historical data...
Loading historical data...
Loading historical data...
Loading historical data...
Loading historical data...
Other satellites on launch #64 in the year 1975 (1975-07-11 UTC)

Documentation

Showing up to 5 results
|